Flag for U.S.A. Weather past 2 weeks in Manhattan, Kansas, U.S.A.

Now
72 °F

Partly sunny.


Feels Like: 68 °F
Forecast: 71 / 84 °F
Wind: No wind

Location: Manhattan Municipal Airport

Current Time: Jul 29, 2015 at 9:12:40 AM

Latest Report: Jul 29, 2015 at 8:52 AM


Visibility: 10 mi

Pressure: 30.11 "Hg

Humidity: 93%

Dew point: 70 °F

Location of ManhattanLocation

Historic Weather in Manhattan — Graph

°F

Manhattan temperature yesterday

Maximum temperature yesterday: 100 °F (at 2:52 PM)
Minimum temperature yesterday: 79 °F (at 4:52 AM)
Average temperature yesterday: 88 °F

Past Weeks' High & Low Weather Summary

 TemperatureHumidityPressure
High102 °F (Jul 24, 4:52 PM)97% (Jul 15, 6:03 AM)30.10 "Hg (Jul 15, 6:03 AM)
Low64 °F (Jul 21, 5:52 AM)36% (Jul 14, 2:52 PM)29.71 "Hg (Jul 16, 7:52 PM)
Average82 °F72%29.84 "Hg
* Reported Jul 14 7:52 AM — Jul 29 7:52 AM, Manhattan, Weather by CustomWeather, © 2015

Note: Actual official high and low records may vary slightly from our data, if they occured in-between our weather recording intervals... More about our weather records

Advertising

Manhattan weather history for previous 24 hours

 ConditionsComfort  
Time TempWeatherWind HumidityBarometerVisibility
7:52 AM
Wed, Jul 29
71 °FLight rain. Broken clouds.9 mph93%30.06 "Hg10 mi
6:52 AM70 °FThundershowers. Passing clouds.3 mph97%30.09 "Hg10 mi
5:52 AM71 °FThundershowers. Passing clouds.6 mph87%30.08 "Hg10 mi
5:02 AM69 °FLight rain. Passing clouds.6 mph96%30.10 "Hg10 mi
3:52 AM68 °FThundershowers. Mostly cloudy.6 mph96%30.03 "Hg10 mi
2:52 AM69 °FThundershowers. Overcast.8 mph93%30.01 "Hg10 mi
1:52 AM73 °FOvercast.17 mph76%30.01 "Hg10 mi
1:03 AM77 °FMostly cloudy.15 mph69%30.01 "Hg10 mi
12:52 AM77 °FMostly cloudy.22 mph69%29.96 "Hg10 mi
11:52 PM
Tue, Jul 28
79 °FPassing clouds.15 mph74%29.93 "Hg10 mi
10:52 PM81 °FMostly cloudy.12 mph79%29.90 "Hg10 mi
9:52 PM84 °FPassing clouds.9 mph80%29.85 "Hg10 mi
8:52 PM91 °FPartly sunny.8 mph60%29.80 "Hg10 mi
7:52 PM93 °FSunny.10 mph54%29.77 "Hg10 mi
6:52 PM96 °FSunny.14 mph49%29.77 "Hg10 mi
5:52 PM99 °FSunny.17 mph43%29.78 "Hg10 mi
4:52 PM100 °FSunny.16 mph41%29.78 "Hg10 mi
3:52 PM100 °FSunny.18 mph41%29.78 "Hg10 mi
2:52 PM100 °FSunny.13 mph39%29.79 "Hg10 mi
1:52 PM99 °FSunny.13 mph42%29.78 "Hg10 mi
12:52 PM96 °FSunny.13 mph46%29.79 "Hg10 mi
11:52 AM95 °FSunny.13 mph46%29.80 "Hg10 mi
10:52 AM91 °FSunny.13 mph52%29.80 "Hg10 mi
9:52 AM88 °FSunny.13 mph55%29.80 "Hg10 mi
Weather by CustomWeather, © 2015

See weather overviewHow to use our weather pages